Location: Unspecified
(0.0000°N, 0.0000°E)
Time: 19:45:00
(UTC+00:00)

deb Briz - Pass Details

Date: 16 February 2026
Orbit: 1607 x 2037 km, 64.9° (Epoch: 11 March)

Event Time Altitude Azimuth Distance (km) Brightness Sun altitude
Rises 03:36:58 0° 175° (S) 5,269 ? -38.2°
Reaches altitude 10° 03:41:30 10° 160° (SSE) 4,197 ? -37.1°
Maximum altitude 03:48:56 22° 114° (ESE) 3,230 ? -35.3°
Drops below altitude 10° 03:55:55 10° 68° (ENE) 3,956 ? -33.6°
Sets 03:59:55 0° 54° (NE) 4,889 ? -32.7°
